Weather History for EGBB - November, 2013

Change the Weather History Date:

Saturday, November 9, 2013

  Actual Average Record
Temperature  
Mean Temperature 40 °F -  
Max Temperature 44 °F 48 °F - ()
Min Temperature 37 °F 36 °F - ()
Degree Days  
Heating Degree Days 24    
Moisture  
Dew Point 39 °F    
Average Humidity 92    
Maximum Humidity 100    
Minimum Humidity 81    
Precipitation  
Precipitation 0.00 in 0.08 in - ()
Sea Level Pressure  
Sea Level Pressure 29.64 in    
Wind  
Wind Speed 8 mph ()    
Max Wind Speed 12 mph    
Max Gust Speed -    
Visibility 6.1 miles    
Events Rain    
T = Trace of Precipitation, MM = Missing Value Source: Averaged Metar Reports

Daily Weather History Graph

Daily Weather History Graph

Search for Another Location

Airport or City:

Trip Planner

Search our weather history database for the weather conditions in past years. The results will help you decide how hot, cold, wet, or windy it might be!

Date:

Astronomy

Nov. 09, 2013 Rise Set
Actual Time 7:17 AM GMT 4:23 PM GMT
Civil Twilight 6:40 AM GMT 5:00 PM GMT
Nautical Twilight 5:59 AM GMT 5:41 PM GMT
Astronomical Twilight 5:19 AM GMT 6:21 PM GMT
Moon 12:39 PM GMT (11/9) 10:45 PM GMT (11/9)
Length of Visible Light 10h 19m
Length of Day
9h 05m
Waxing Crescent, 41% of the Moon is Illuminated
Nov 9
Waxing Crescent
Nov 10
First Quarter
Nov 17
Full
Nov 25
Last Quarter
Dec 3
New

Hourly Weather History & Observations

Time (GMT) Temp. Windchill Dew Point Humidity Pressure Visibility Wind Dir Wind Speed Gust Speed Precip Events Conditions
12:20 AM 39.2 °F 34.2 °F 37.4 °F 93% 29.68 in 6.2 mi WSW 6.9 mph - N/A   Unknown
12:50 AM 39.2 °F 33.0 °F 37.4 °F 93% 29.68 in 6.2 mi WSW 9.2 mph - N/A   Unknown
1:20 AM 39.2 °F 32.0 °F 37.4 °F 93% 29.68 in 6.2 mi WSW 11.5 mph - N/A   Unknown
1:50 AM 39.2 °F 33.0 °F 37.4 °F 93% 29.68 in 6.2 mi SW 9.2 mph - N/A   Unknown
2:20 AM 39.2 °F 33.0 °F 37.4 °F 93% 29.68 in 6.2 mi SW 9.2 mph - N/A   Unknown
2:50 AM 39.2 °F 33.6 °F 35.6 °F 87% 29.71 in 6.2 mi SW 8.1 mph - N/A   Unknown
3:20 AM 37.4 °F 31.4 °F 35.6 °F 93% 29.71 in 6.2 mi SW 8.1 mph - N/A   Unknown
3:50 AM 37.4 °F 30.3 °F 35.6 °F 93% 29.68 in 6.2 mi SW 10.4 mph - N/A   Unknown
4:20 AM 37.4 °F 30.8 °F 35.6 °F 93% 29.68 in - SSW 9.2 mph - N/A   Clear
4:50 AM 37.4 °F 32.8 °F 35.6 °F 93% 29.68 in - South 5.8 mph - N/A   Clear
5:20 AM 37.4 °F 32.1 °F 35.6 °F 93% 29.68 in - SSW 6.9 mph - N/A   Clear
5:50 AM 37.4 °F 31.4 °F 35.6 °F 93% 29.68 in - SSW 8.1 mph - N/A   Clear
6:20 AM 37.4 °F 30.3 °F 35.6 °F 93% 29.68 in 6.2 mi SSW 10.4 mph - N/A   Partly Cloudy
6:50 AM 39.2 °F 33.0 °F 37.4 °F 93% 29.68 in - SSW 9.2 mph - N/A   Clear
7:20 AM 39.2 °F 33.0 °F 37.4 °F 93% 29.68 in - SSW 9.2 mph - N/A   Clear
7:50 AM 39.2 °F 33.0 °F 39.2 °F 100% 29.68 in 6.2 mi SW 9.2 mph - N/A   Unknown
8:20 AM 41.0 °F 34.7 °F 39.2 °F 93% 29.68 in - SSW 10.4 mph - N/A   Clear
8:50 AM 41.0 °F 35.2 °F 39.2 °F 93% 29.68 in - SSW 9.2 mph - N/A   Clear
9:20 AM 41.0 °F 35.8 °F 39.2 °F 93% 29.68 in - SSW 8.1 mph - N/A   Clear
9:50 AM 42.8 °F 37.5 °F 39.2 °F 87% 29.68 in 6.2 mi SSW 9.2 mph - N/A   Partly Cloudy
10:20 AM 42.8 °F 38.0 °F 39.2 °F 87% 29.68 in 6.2 mi WSW 8.1 mph - N/A   Partly Cloudy
10:50 AM 42.8 °F 38.0 °F 41.0 °F 93% 29.68 in 6.2 mi West 8.1 mph - N/A   Scattered Clouds
11:20 AM 42.8 °F 38.0 °F 41.0 °F 93% 29.65 in 6.2 mi SW 8.1 mph - N/A Rain Light Rain
11:50 AM 42.8 °F 37.0 °F 41.0 °F 93% 29.65 in 6.2 mi SSW 10.4 mph - N/A Rain Light Rain
12:20 PM 42.8 °F 37.5 °F 41.0 °F 93% 29.65 in 6.2 mi SW 9.2 mph - N/A   Partly Cloudy
12:50 PM 42.8 °F 37.5 °F 41.0 °F 93% 29.62 in 6.2 mi SW 9.2 mph - N/A   Scattered Clouds
1:20 PM 44.6 °F 39.7 °F 41.0 °F 87% 29.62 in 6.2 mi SW 9.2 mph - N/A   Scattered Clouds
1:50 PM 44.6 °F 39.7 °F 41.0 °F 87% 29.62 in 6.2 mi SW 9.2 mph - N/A   Partly Cloudy
2:20 PM 44.6 °F 39.7 °F 41.0 °F 87% 29.62 in 6.2 mi WSW 9.2 mph - N/A   Scattered Clouds
2:50 PM 44.6 °F 39.7 °F 39.2 °F 81% 29.62 in 6.2 mi SW 9.2 mph - N/A   Scattered Clouds
3:20 PM 42.8 °F 37.5 °F 39.2 °F 87% 29.62 in 6.2 mi SW 9.2 mph - N/A   Scattered Clouds
3:50 PM 42.8 °F 38.6 °F 39.2 °F 87% 29.62 in 6.2 mi SSW 6.9 mph - N/A   Partly Cloudy
4:20 PM 41.0 °F 37.1 °F 39.2 °F 93% 29.62 in 6.2 mi SSW 5.8 mph - N/A   Partly Cloudy
4:50 PM 41.0 °F 36.4 °F 39.2 °F 93% 29.62 in - SSW 6.9 mph - N/A   Clear
5:20 PM 41.0 °F 35.2 °F 39.2 °F 93% 29.62 in - SW 9.2 mph - N/A   Clear
5:50 PM 41.0 °F 35.2 °F 39.2 °F 93% 29.59 in - SSW 9.2 mph - N/A   Clear
6:20 PM 41.0 °F 35.2 °F 39.2 °F 93% 29.59 in - SSW 9.2 mph - N/A   Clear
6:50 PM 41.0 °F 35.8 °F 39.2 °F 93% 29.59 in - SSW 8.1 mph - N/A   Clear
7:20 PM 41.0 °F 35.8 °F 41.0 °F 100% 29.59 in - South 8.1 mph - N/A   Clear
7:50 PM 42.8 °F 38.0 °F 41.0 °F 93% 29.59 in - SSW 8.1 mph - N/A   Clear
8:20 PM 42.8 °F 37.5 °F 41.0 °F 93% 29.59 in - SSW 9.2 mph - N/A   Clear
8:50 PM 42.8 °F 37.5 °F 41.0 °F 93% 29.59 in 3.1 mi SSW 9.2 mph - N/A   Haze
9:20 PM 42.8 °F 38.0 °F 41.0 °F 93% 29.59 in 5.6 mi SSW 8.1 mph - N/A   Unknown
9:50 PM 42.8 °F 38.6 °F 41.0 °F 93% 29.59 in 6.2 mi SW 6.9 mph - N/A   Scattered Clouds
10:20 PM 42.8 °F 39.3 °F 41.0 °F 93% 29.59 in - WSW 5.8 mph - N/A   Clear
10:50 PM 42.8 °F 39.3 °F 41.0 °F 93% 29.59 in - West 5.8 mph - N/A   Clear
11:20 PM 42.8 °F 39.3 °F 41.0 °F 93% 29.59 in - West 5.8 mph - N/A   Clear
11:50 PM 41.0 °F 38.0 °F 39.2 °F 93% 29.62 in - NW 4.6 mph - N/A   Clear